Weather History for Gwinn, MI

Change the Weather History Date:

Thursday, February 20, 2014

  Actual Average (KESC) Record (KESC)
Temperature  
Mean Temperature 29 °F -  
Max Temperature 37 °F 29 °F 44 °F (2003)
Min Temperature 21 °F 9 °F -12 °F (1959)
Degree Days  
Heating Degree Days 36    
Moisture  
Dew Point 23 °F    
Average Humidity 79    
Maximum Humidity 94    
Minimum Humidity 60    
Precipitation  
Precipitation 0.05 in - - ()
Sea Level Pressure  
Sea Level Pressure 29.64 in    
Wind  
Wind Speed 6 mph (SE)    
Max Wind Speed 22 mph    
Max Gust Speed 75 mph    
Visibility 8 miles    
Events Snow    
Averages and records for this station are not official NWS values.
T = Trace of Precipitation, MM = Missing Value Source: NWS Daily Summary

Daily Weather History Graph

Daily Weather History Graph

Search for Another Location

Airport:

Trip Planner

Search our weather history database for the weather conditions in past years. The results will help you decide how hot, cold, wet, or windy it might be!

Date:

Astronomy

Feb. 20, 2014 Rise Set
Actual Time 7:44 AM EST 6:22 PM EST
Civil Twilight 7:13 AM EST 6:53 PM EST
Nautical Twilight 6:39 AM EST 7:28 PM EST
Astronomical Twilight 6:04 AM EST 8:03 PM EST
Moon No Moon Rise 10:06 AM EST (2/20)
Length of Visible Light 11h 39m
Length of Day
10h 38m
Waning Gibbous, 71% of the Moon is Illuminated
Feb 20
Waning Gibbous
Feb 22
Last Quarter
Mar 1
New
Mar 8
First Quarter
Mar 16
Full

Hourly Weather History & Observations

Time (EST) Temp. Windchill Dew Point Humidity Pressure Visibility Wind Dir Wind Speed Gust Speed Precip Events Conditions
12:16 AM 29.1 °F 22.1 °F 17.4 °F 62% 29.82 in 10.0 mi South 6.9 mph - N/A   Scattered Clouds
12:37 AM 27.9 °F 21.5 °F 18.0 °F 66% 29.83 in 10.0 mi South 5.8 mph - N/A   Scattered Clouds
12:56 AM 27.3 °F - 18.0 °F 68% 29.83 in 10.0 mi Calm Calm - N/A   Scattered Clouds
1:16 AM 27.5 °F - 18.1 °F 68% 29.84 in 10.0 mi Calm Calm - N/A   Scattered Clouds
1:37 AM 28.0 °F - 18.1 °F 66% 29.84 in 10.0 mi Calm Calm - N/A   Mostly Cloudy
1:56 AM 23.0 °F - 16.3 °F 76% 29.84 in 10.0 mi Calm Calm - N/A   Scattered Clouds
2:17 AM 25.5 °F - 17.6 °F 72% 29.84 in 10.0 mi Calm Calm - N/A   Scattered Clouds
2:36 AM 25.3 °F - 17.2 °F 71% 29.84 in 10.0 mi Calm Calm - N/A   Clear
2:56 AM 23.2 °F - 16.7 °F 76% 29.85 in 10.0 mi Calm Calm - N/A   Mostly Cloudy
3:17 AM 22.1 °F - 16.2 °F 78% 29.86 in 10.0 mi Calm Calm - N/A   Overcast
3:36 AM 21.4 °F - 16.2 °F 80% 29.86 in 10.0 mi Calm Calm - N/A   Overcast
3:56 AM 23.5 °F - 17.6 °F 78% 29.85 in 10.0 mi Calm Calm - N/A   Overcast
4:17 AM 24.6 °F - 18.1 °F 76% 29.84 in 10.0 mi Calm Calm - N/A   Overcast
4:36 AM 23.0 °F - 18.0 °F 81% 29.84 in 10.0 mi Calm Calm - N/A   Overcast
4:57 AM 25.5 °F - 19.2 °F 77% 29.82 in 10.0 mi Calm Calm - N/A   Overcast
5:17 AM 24.8 °F 20.5 °F 18.5 °F 77% 29.82 in 10.0 mi SSE 3.5 mph - N/A   Overcast
5:36 AM 25.9 °F 21.7 °F 18.7 °F 74% 29.82 in 10.0 mi SSE 3.5 mph - N/A   Scattered Clouds
5:57 AM 24.1 °F - 18.5 °F 79% 29.81 in 10.0 mi Calm Calm - N/A   Clear
6:55 AM 24.8 °F 16.1 °F 19.4 °F 80% 29.80 in 10.0 mi SSE 8.1 mph - N/A   Clear
7:50 AM 23.0 °F 18.4 °F 19.4 °F 86% 29.80 in 10.0 mi South 3.5 mph - N/A   Clear
8:50 AM 23.0 °F 17.0 °F 19.4 °F 86% 29.80 in 10.0 mi SSE 4.6 mph - N/A   Clear
9:50 AM 23.0 °F - 21.2 °F 93% 29.79 in 7.0 mi Calm Calm - N/A   Clear
10:50 AM 28.4 °F 19.1 °F 26.6 °F 93% 29.78 in 5.0 mi SE 10.4 mph - N/A   Clear
11:50 AM 32.0 °F 24.2 °F 26.6 °F 80% 29.75 in 10.0 mi SSE 9.2 mph - N/A   Clear
12:50 PM 37.4 °F 30.3 °F 26.6 °F 65% 29.72 in 10.0 mi SE 10.4 mph - N/A   Clear
1:50 PM 37.4 °F 28.9 °F 26.6 °F 65% 29.69 in 10.0 mi SSE 13.8 mph 19.6 mph N/A   Mostly Cloudy
2:50 PM 35.6 °F 27.5 °F 28.4 °F 75% 29.66 in 10.0 mi SSE 11.5 mph 19.6 mph N/A   Overcast
3:50 PM 37.4 °F 29.3 °F 28.4 °F 70% 29.63 in 10.0 mi SE 12.7 mph 19.6 mph N/A   Overcast
4:50 PM 37.4 °F 29.8 °F 28.4 °F 70% 29.59 in 10.0 mi ESE 11.5 mph 21.9 mph N/A   Overcast
5:45 PM 37.4 °F 27.8 °F 24.8 °F 60% 29.52 in 10.0 mi ESE 17.3 mph 23.0 mph N/A   Overcast
6:51 PM 35.6 °F 25.5 °F 26.6 °F 70% 29.47 in 10.0 mi ESE 17.3 mph 26.5 mph N/A   Overcast
7:14 PM 35.6 °F 24.5 °F 28.4 °F 75% 29.46 in 10.0 mi ESE 20.7 mph 26.5 mph N/A   Overcast
7:45 PM 35.6 °F 24.2 °F 28.4 °F 75% 29.42 in 10.0 mi ESE 21.9 mph 28.8 mph N/A   Overcast
8:55 PM 33.8 °F 22.2 °F 28.4 °F 81% 29.33 in 7.0 mi ESE 20.7 mph 29.9 mph N/A Snow Light Snow
9:08 PM 32.0 °F 21.2 °F 30.2 °F 93% 29.32 in 0.8 mi ESE 16.1 mph 48.3 mph N/A Snow Snow
9:45 PM 32.0 °F 20.1 °F 30.2 °F 93% 29.26 in 0.5 mi East 19.6 mph 74.8 mph N/A Snow Heavy Snow
10:17 PM 32.2 °F 22.3 °F 30.7 °F 94% 29.20 in 2.0 mi ESE 13.8 mph 23.0 mph 0.01 in Snow Light Snow
10:36 PM 32.4 °F 23.0 °F 30.9 °F 94% 29.19 in 3.0 mi ESE 12.7 mph 21.9 mph 0.03 in Snow Light Snow
10:57 PM 32.9 °F 21.0 °F 31.1 °F 93% 29.15 in 2.0 mi ESE 20.7 mph 27.6 mph 0.03 in Snow Light Snow
11:17 PM 32.5 °F 21.2 °F 30.9 °F 94% 29.13 in 2.0 mi ESE 18.4 mph 27.6 mph N/A Snow Light Snow
11:36 PM 32.4 °F 20.0 °F 30.7 °F 94% 29.11 in 1.0 mi ESE 21.9 mph 58.7 mph 0.01 in Snow Snow
11:57 PM 32.4 °F 22.1 °F 30.7 °F 94% 29.09 in 0.8 mi SE 15.0 mph 24.2 mph 0.02 in Snow Snow